This is the latest recevied weather packets stored in our database for station/object KE5QKR. If no packets are shown the sender has not sent any weather packets the latest 1 day(s).
| Time | Temp. | Humidity | Pressure | Rain* | Wind** | Luminosity | Snow |
|---|---|---|---|---|---|---|---|
| 1777992103 | 24.44° C | 75% | 1012.3 hPa | 0 mm | 0.45 m/s, 319° | 293 W/m² | - |
| 1777991800 | 24.44° C | 77% | 1012.4 hPa | 0 mm | 0 m/s | 480 W/m² | - |
| 1777991497 | 23.89° C | 77% | 1012.2 hPa | 0 mm | 0.45 m/s, 326° | 442 W/m² | - |
| 1777991194 | 23.33° C | 79% | 1012.3 hPa | 0 mm | 0 m/s | 372 W/m² | - |
| 1777990891 | 23.89° C | 78% | 1012.3 hPa | 0 mm | 0.45 m/s, 269° | 331 W/m² | - |
| 1777990589 | 23.33° C | 79% | 1012 hPa | 0 mm | 0.45 m/s, 73° | 353 W/m² | - |
| 1777990285 | 22.78° C | 80% | 1012 hPa | 0 mm | 0 m/s | 377 W/m² | - |
| 1777989982 | 23.33° C | 81% | 1012.3 hPa | 0 mm | 0 m/s | 349 W/m² | - |
| 1777989679 | 23.33° C | 79% | 1012.2 hPa | 0 mm | 0.45 m/s, 358° | 331 W/m² | - |
| 1777989375 | 22.78° C | 80% | 1012.2 hPa | 0 mm | 0 m/s | 373 W/m² | - |
| 1777989072 | 22.78° C | 82% | 1012.2 hPa | 0 mm | 0 m/s | 351 W/m² | - |
| 1777988767 | 22.22° C | 83% | 1012.1 hPa | 0 mm | 0 m/s | 317 W/m² | - |
| 1777988465 | 21.67° C | 83% | 1012.2 hPa | 0 mm | 0 m/s | 272 W/m² | - |
| 1777988162 | 20.56° C | 87% | 1011.9 hPa | 0 mm | 0 m/s | 287 W/m² | - |
| 1777987858 | 19.44° C | 91% | 1012.2 hPa | 0 mm | 0 m/s | 227 W/m² | - |
| 1777987554 | 18.89° C | 95% | 1012.1 hPa | 0 mm | 0 m/s | 228 W/m² | - |
| 1777987252 | 18.33° C | 99% | 1012 hPa | 0 mm | 0 m/s | 220 W/m² | - |
| 1777986948 | 17.78° C | 99% | 1012.2 hPa | 0 mm | 0 m/s | 156 W/m² | - |
| 1777986647 | 17.22° C | 99% | 1012 hPa | 0 mm | 0 m/s | 143 W/m² | - |
| 1777986344 | 16.67° C | 99% | 1012.2 hPa | 0 mm | 0 m/s | 129 W/m² | - |
| 1777986043 | 16.67° C | 99% | 1012.2 hPa | 0 mm | 0 m/s | 107 W/m² | - |
| 1777985739 | 16.11° C | 99% | 1012.1 hPa | 0 mm | 0 m/s | 96 W/m² | - |
| 1777985436 | 16.11° C | 99% | 1012.4 hPa | 0 mm | 0 m/s | 90 W/m² | - |
| 1777985132 | 15.56° C | 99% | 1012.1 hPa | 0 mm | 0 m/s | 90 W/m² | - |
| 1777984828 | 15.56° C | 99% | 1012.1 hPa | 0 mm | 0 m/s | 92 W/m² | - |
* Rain latest hour (hover to see other rain measurements)
** Current wind speed in m/s (hover to see current wind gust speed)